NOAA 16 DEB, 41292

Orbit data source: Space-Track

NOAA 16 DEB, 41292 is space debris in SSO originally from a launch on Thu, 21 Sep 2000 UTC launched from the Air Force Western Test Range (AFWTR). Debris objects in space refer to the collection of defunct objects orbiting the Earth. Examples of debris include non-operational satellites, rocket bodies, and fragments generated from explosions, collisions, or faulty payload assembly.

Loading next visibility...
Identifier
41292, 2000-055GU
Orbit
SSO
Country
Flag of USUS
Related business
Manufacturer
Unknown
Mission
Spacecraft
Bus & Motor
Unknown
Mass
Unknown
Launch date (UTC)
2000-09-21 (25 years ago)
Launch vehicle
Unknown
Launch site
Air Force Western Test Range (AFWTR)
Object type
Payload
Rocket body
Debris
Shape & HBR
Unknown
Radar Cross Section
Small (<0.1 m²)

Expand to show TLE details & history
Last TLE update: 11 hours ago

TLE from 11 hours ago
0 NOAA 16 DEB
1 41292U 00055GU  25259.06469531  .00008754  00000-0  21098-2 0  9991
2 41292  98.9799 110.3626 0034106 133.0396 227.3664 14.53124320507938
Epoch: 2025-09-16T01:33Z
TLE epoch observation values (Epoch: 2025-09-16T01:33:09.674Z)
Latitude
0.00004°
Longitude
91.81193°
Altitude
734.848 km
Speed
7.479 km/s
True Right ascension
07h 21m 27s
True Declination
0° 00' 00"
Sunlit
Object was in daylight at epoch
Visualization orbit readout
Latitude
Unknown
Longitude
Unknown
Altitude
Unknown
Speed
Unknown
Apparent Right ascension
Unknown
Apparent Declination
Unknown
Sunlit
N/A
Visualization observer readout
Local Sidereal Time
05:37:32
Azimuth
Unknown
Elevation
Unknown
Doppler factor
Unknown
Orbital elements
Apogee altitude
736.774 km
Perigee altitude
688.407 km
Semi-major axis
7,090.727 km
Eccentricity
0.00341
Inclination
98.9799°
RAAN
110.3626°
Arg. of periapsis
133.0396°
True anomaly
227.0797°
Mean anomaly
227.3664°
Eccentric anomaly
227.22297°
Mean motion
3.63502 °/min
Orbital period
99.04 mins
BSTAR
0.0021098
Loading maneuver chart data...
Computing Atmospheric mass density...
Loading historical data...
Loading historical data...
Loading historical data...
Loading historical data...
Loading historical data...
Loading historical data...
Loading historical data...

Documentation

Showing up to 5 results
|